Waarnemingen

Advertentie
Mijn weer
Estaca de Bares, Spanje (8004): temperatuur & dauwpunt: 16.11.2019 07:00:00 - 22.11.2019 07:00:00 (CET)Estaca de Bares, Spanje (8004): windsnelheid & windstoten: 16.11.2019 07:00:00 - 22.11.2019 07:00:00 (CET)Estaca de Bares, Spanje (8004): windrichting: 16.11.2019 07:00:00 - 22.11.2019 07:00:00 (CET)Estaca de Bares, Spanje (8004): luchtdruk: 16.11.2019 07:00:00 - 22.11.2019 07:00:00 (CET)Estaca de Bares, Spanje (8004): zicht: 16.11.2019 07:00:00 - 22.11.2019 07:00:00 (CET)Estaca de Bares, Spanje (8004): Zonneschijnduur: 16.11.2019 07:00:00 - 22.11.2019 07:00:00 (CET)Estaca de Bares, Spanje (8004): neerslag: 16.11.2019 07:00:00 - 22.11.2019 07:00:00 (CET)
Datum & Tijd tt [°C] td [°C] ff [km/u] ff [kn] fx [km/u] fx [kn] dd ppp [hPa] vv [km] sd [min] rr [mm]
22.11.2019 07:00:00 - - - - - - - - - - -
22.11.2019 06:00:00 12,0 7,7 46 25 76 41 ZW 984,9 - 0 0,4
22.11.2019 05:00:00 10,8 7,1 22 12 58 31 ZO 987,5 - 0 0,6
22.11.2019 04:00:00 11,1 7,0 19 10 42 23 Z 990,9 - 0 0,4
22.11.2019 03:00:00 11,4 5,8 24 13 44 24 ZW 993,0 - 0 0,0
22.11.2019 02:00:00 11,7 5,8 22 12 38 21 ZZW 994,8 - 0 0,0
22.11.2019 01:00:00 11,8 6,1 32 17 48 26 WZW 996,4 - 0 -
22.11.2019 00:00:00 11,7 5,9 28 15 46 25 ZW 997,4 - 0 0,0
21.11.2019 23:00:00 11,6 6,5 34 18 48 26 WZW 998,3 - 0 0,0
21.11.2019 22:00:00 11,3 7,0 29 16 49 26 WZW 999,4 - 0 0,0
21.11.2019 21:00:00 11,4 7,1 38 21 48 26 WZW 999,9 - 0 0,0
21.11.2019 20:00:00 11,4 7,0 34 18 46 25 WZW 1000,4 - 0 0,0
21.11.2019 19:00:00 11,5 6,4 36 19 49 26 WZW 1000,7 - 0 -
21.11.2019 18:00:00 12,0 7,1 19 10 55 30 ZW 1001,2 - 1 0,0
21.11.2019 17:00:00 13,0 8,3 39 21 53 29 W 1000,8 - 57 0,0
21.11.2019 16:00:00 13,2 8,5 38 20 61 33 WZW 1000,7 - 60 0,0
21.11.2019 15:00:00 12,8 8,3 41 22 63 34 WZW 1000,7 - 42 0,0
21.11.2019 14:00:00 12,8 8,5 46 25 96 52 WZW 1000,5 - 47 0,2
21.11.2019 13:00:00 12,8 7,4 55 30 66 36 WZW 1000,6 - 49 -
21.11.2019 12:00:00 12,2 7,3 55 30 67 36 WZW 1001,0 - 56 0,0
21.11.2019 11:00:00 11,4 6,7 50 27 64 35 WZW 1001,2 - 60 0,0
21.11.2019 10:00:00 10,3 6,4 46 25 54 29 WZW 1001,3 - 51 0,0
21.11.2019 09:00:00 9,6 5,6 48 26 64 34 WZW 1001,2 - 0 0,2
21.11.2019 08:00:00 9,7 5,9 50 27 66 36 W 1001,5 - 0 0,0
21.11.2019 07:00:00 10,2 5,3 61 33 72 39 WZW 999,9 - 0 -
21.11.2019 06:00:00 9,1 6,4 45 25 85 46 WZW 1000,1 20 0 0,8
21.11.2019 05:00:00 9,9 6,5 56 30 65 35 WZW 999,5 20 0 0,2
21.11.2019 04:00:00 9,9 7,1 37 20 49 26 WZW 1000,5 20 0 0,0
21.11.2019 03:00:00 9,8 5,5 34 19 48 26 WZW 1000,6 20 0 0,0
21.11.2019 02:00:00 9,8 5,8 29 16 50 27 WZW 1000,9 20 0 0,0
21.11.2019 01:00:00 10,3 5,6 46 25 58 31 WZW 1000,6 20 0 -
21.11.2019 00:00:00 10,2 5,8 28 15 46 25 W 1001,1 20 0 0,0
20.11.2019 23:00:00 10,5 6,7 31 17 59 32 W 1001,4 20 0 0,0
20.11.2019 22:00:00 10,7 5,8 31 17 40 22 WZW 1000,9 20 0 0,0
20.11.2019 21:00:00 10,8 5,9 26 14 44 24 ZW 1000,9 20 0 0,0
20.11.2019 20:00:00 10,3 5,6 29 15 60 33 WZW 1000,8 20 0 0,0
20.11.2019 19:00:00 11,0 6,4 37 20 52 28 WZW 1000,9 20 0 -
20.11.2019 18:00:00 11,4 6,7 36 20 52 28 WZW 1000,7 20 15 0,0
20.11.2019 17:00:00 12,4 6,7 43 23 60 33 WZW 1000,2 20 47 0,0
20.11.2019 16:00:00 12,1 6,8 41 22 59 32 WZW 1000,3 20 12 0,0
20.11.2019 15:00:00 12,5 6,2 41 22 67 36 WZW 1000,5 20 45 0,0
20.11.2019 14:00:00 12,9 6,5 46 25 64 34 WZW 1001,1 20 6 0,0
20.11.2019 13:00:00 12,7 6,2 44 24 67 36 WZW 1001,6 20 31 -
20.11.2019 12:00:00 11,5 5,9 51 27 68 37 WZW 1002,5 20 24 0,0
20.11.2019 11:00:00 10,9 7,3 46 25 54 29 W 1003,0 20 0 0,0
20.11.2019 10:00:00 10,4 6,4 18 10 29 16 W 1003,8 20 0 0,0
20.11.2019 09:00:00 10,1 4,8 19 10 34 18 ZW 1004,1 20 0 0,0
20.11.2019 08:00:00 11,3 3,8 21 11 35 19 ZW 1004,0 20 0 0,0
20.11.2019 07:00:00 9,7 5,6 17 9 27 15 ZW 1004,5 20 0 -
20.11.2019 06:00:00 9,9 6,4 21 12 27 15 WZW 1005,0 20 0 0,0
20.11.2019 05:00:00 10,0 6,4 11 6 16 9 WZW 1005,6 20 0 0,0
20.11.2019 04:00:00 10,2 6,5 11 6 28 15 ZW 1006,3 20 0 0,0
20.11.2019 03:00:00 9,9 7,6 15 8 28 15 ZW 1006,8 20 0 0,0
20.11.2019 02:00:00 9,8 8,1 19 10 28 15 WZW 1007,7 20 0 0,0
20.11.2019 01:00:00 10,1 8,0 22 12 31 17 WZW 1008,3 20 0 -
20.11.2019 00:00:00 10,3 8,1 23 12 28 15 WZW 1008,5 20 0 0,0
19.11.2019 23:00:00 10,9 9,0 16 9 31 17 WZW 1009,3 20 0 0,0
19.11.2019 22:00:00 10,8 8,8 22 12 26 14 WZW 1009,3 20 0 0,2
19.11.2019 21:00:00 10,6 9,0 15 8 21 12 WZW 1009,8 20 0 0,0
19.11.2019 20:00:00 10,5 9,0 12 7 16 9 W 1010,3 20 0 0,0
19.11.2019 19:00:00 10,3 9,2 9 5 23 13 WZW 1010,4 20 0 -
19.11.2019 18:00:00 10,5 9,0 19 11 34 19 WZW 1010,3 20 0 0,0
19.11.2019 17:00:00 10,6 9,0 30 16 39 21 WZW 1010,1 20 0 0,0
19.11.2019 16:00:00 10,5 8,9 8 5 21 11 ZZW 1010,6 20 0 0,0
19.11.2019 15:00:00 10,3 9,0 6 3 16 9 WNW 1011,1 20 0 0,0
19.11.2019 14:00:00 10,0 8,8 4 2 22 12 ZO 1011,5 20 0 2,2
19.11.2019 13:00:00 10,7 7,6 7 4 21 11 Z 1012,0 20 0 -
19.11.2019 12:00:00 10,9 6,4 13 7 22 12 ZZW 1012,8 20 0 0,2
19.11.2019 11:00:00 10,6 6,4 7 4 13 7 ZZW 1013,2 20 0 0,0
19.11.2019 10:00:00 10,1 4,8 10 5 20 11 ZZW 1013,3 20 0 0,0
19.11.2019 09:00:00 9,6 4,8 7 4 26 14 ZW 1013,6 20 0 0,0
19.11.2019 08:00:00 9,4 3,9 20 11 37 20 Z 1013,5 20 0 0,0
19.11.2019 07:00:00 9,6 4,1 27 14 38 20 Z 1013,6 20 0 -
19.11.2019 06:00:00 9,1 4,5 23 12 30 16 Z 1014,3 20 0 0,0
19.11.2019 05:00:00 9,0 4,8 14 7 19 10 ZZW 1014,8 20 0 0,0
19.11.2019 04:00:00 9,1 5,9 5 3 14 7 ZW 1015,1 20 0 0,0
19.11.2019 03:00:00 9,8 6,1 9 5 19 10 W 1015,5 20 0 0,0
19.11.2019 02:00:00 9,8 6,5 11 6 16 9 W 1016,0 20 0 0,0
19.11.2019 01:00:00 9,5 5,3 6 4 18 10 ZZW 1016,7 20 0 -
19.11.2019 00:00:00 10,0 5,5 8 5 16 9 ZW 1016,7 20 0 0,0
18.11.2019 23:00:00 10,1 6,2 13 7 18 10 WZW 1017,4 20 0 0,0
18.11.2019 22:00:00 10,2 6,5 8 5 16 9 WZW 1017,6 20 0 0,0
18.11.2019 21:00:00 9,6 7,0 14 8 18 10 ZZO 1017,8 20 0 0,0
18.11.2019 20:00:00 9,9 7,3 13 7 16 9 ZZO 1017,6 20 0 0,0
18.11.2019 19:00:00 10,8 7,3 11 6 14 7 ZZO 1018,0 20 0 -
18.11.2019 18:00:00 10,8 7,8 9 5 12 6 ZZO 1017,8 20 17 0,0
18.11.2019 17:00:00 11,5 7,6 9 5 22 12 O 1017,8 20 9 0,0
18.11.2019 16:00:00 11,4 8,1 12 7 21 12 ONO 1017,6 20 30 0,0
18.11.2019 15:00:00 13,4 9,0 10 6 19 11 W 1017,6 20 49 0,0
18.11.2019 14:00:00 12,4 9,4 16 9 23 13 W 1017,8 20 33 0,2
18.11.2019 13:00:00 11,2 8,9 21 11 26 14 W 1018,3 20 0 -
18.11.2019 12:00:00 12,2 7,6 6 3 24 13 WNW 1018,5 20 2 0,0
18.11.2019 11:00:00 12,1 7,4 14 7 22 12 N 1018,5 20 7 0,0
18.11.2019 10:00:00 10,2 8,5 9 5 24 13 OZO 1018,1 20 0 2,2
18.11.2019 09:00:00 11,5 6,7 12 7 34 18 NNW 1017,5 20 0 0,0
18.11.2019 08:00:00 11,4 6,5 20 11 32 17 N 1016,9 20 0 0,0
18.11.2019 07:00:00 11,2 7,0 18 10 35 19 N 1016,5 20 0 -
18.11.2019 06:00:00 11,3 6,8 21 11 40 21 N 1016,2 20 0 0,0
18.11.2019 05:00:00 10,8 7,1 10 5 52 28 N 1015,8 20 0 1,2
18.11.2019 04:00:00 11,5 7,3 14 8 38 20 N 1015,5 20 0 0,0
18.11.2019 03:00:00 11,3 6,4 22 12 35 19 N 1015,1 20 0 0,0
18.11.2019 02:00:00 10,7 7,0 18 10 49 26 NNO 1015,0 20 0 2,2
18.11.2019 01:00:00 11,0 6,5 23 12 55 30 N 1015,3 20 0 -
18.11.2019 00:00:00 10,8 8,0 42 23 56 31 N 1014,6 20 0 0,8
17.11.2019 23:00:00 11,9 6,8 23 12 48 26 NNO 1014,3 20 0 0,2
17.11.2019 22:00:00 11,9 5,3 25 13 42 23 NNO 1014,0 20 0 0,0
17.11.2019 21:00:00 11,5 6,7 28 15 47 25 N 1013,4 20 0 0,4
17.11.2019 20:00:00 10,3 7,8 34 18 53 28 N 1012,9 20 0 0,0
17.11.2019 19:00:00 11,6 7,0 29 16 49 26 N 1012,0 20 0 -
17.11.2019 18:00:00 11,7 7,4 26 14 41 22 N 1011,1 20 0 0,0
17.11.2019 17:00:00 11,9 9,0 26 14 71 39 WNW 1010,2 20 0 0,6
17.11.2019 16:00:00 11,6 8,4 54 29 85 46 WNW 1009,2 20 3 1,0
17.11.2019 15:00:00 11,2 8,1 59 32 74 40 W 1009,3 20 7 0,0
17.11.2019 14:00:00 12,1 6,5 63 34 76 41 WNW 1009,6 20 12 0,0
17.11.2019 13:00:00 12,7 6,1 61 33 72 39 WNW 1009,5 20 38 -
17.11.2019 12:00:00 12,5 7,0 48 26 70 38 WNW 1010,7 20 27 0,0
17.11.2019 11:00:00 12,2 6,8 54 29 69 37 WNW 1009,9 20 12 0,0
17.11.2019 10:00:00 11,9 6,8 29 16 69 37 WNW 1010,5 20 2 0,2
17.11.2019 09:00:00 12,0 9,2 51 28 64 35 WNW 1009,3 20 0 0,0
17.11.2019 08:00:00 12,7 7,0 57 31 73 39 WNW 1009,3 20 0 0,0
17.11.2019 07:00:00 12,9 7,6 61 33 73 40 WNW 1008,1 20 0 -
17.11.2019 06:00:00 12,6 8,3 60 33 72 39 W 1008,5 20 0 0,2
17.11.2019 05:00:00 11,8 10,5 62 33 82 44 W 1008,8 20 0 0,0
17.11.2019 04:00:00 12,0 9,4 53 29 65 35 WZW 1008,1 20 0 0,0
17.11.2019 03:00:00 11,6 8,3 40 21 54 29 WZW 1009,3 20 0 0,0
17.11.2019 02:00:00 11,6 8,4 41 22 60 32 W 1010,2 20 0 0,0
17.11.2019 01:00:00 10,8 7,8 36 19 45 25 WZW 1010,9 20 0 -
17.11.2019 00:00:00 10,6 7,8 35 19 50 27 WZW 1011,4 20 0 0,0
16.11.2019 23:00:00 10,4 7,7 37 20 60 32 W 1012,1 20 0 0,0
16.11.2019 22:00:00 10,3 7,7 48 26 55 30 W 1012,4 20 0 0,0
16.11.2019 21:00:00 9,8 7,7 41 22 47 26 W 1012,6 20 0 0,0
16.11.2019 20:00:00 9,4 7,7 43 23 54 29 WZW 1013,0 20 0 0,0
16.11.2019 19:00:00 9,1 7,8 41 22 60 32 WZW 1013,2 20 0 -
16.11.2019 18:00:00 9,0 7,6 48 26 55 30 WZW 1013,3 20 0 0,8
16.11.2019 17:00:00 9,4 7,8 36 20 50 27 WZW 1013,9 20 0 0,2
16.11.2019 16:00:00 10,2 7,3 41 22 71 38 W 1013,6 20 0 0,4
16.11.2019 15:00:00 11,6 6,7 39 21 51 28 W 1013,5 20 6 0,0
16.11.2019 14:00:00 10,9 5,6 41 22 59 32 W 1013,6 20 4 0,0
16.11.2019 13:00:00 11,8 2,5 46 25 55 30 W 1013,9 20 13 -
16.11.2019 12:00:00 11,6 5,0 45 24 56 31 WNW 1014,2 20 13 0,0
16.11.2019 11:00:00 11,5 2,9 46 25 61 33 WNW 1014,3 20 2 0,0
16.11.2019 10:00:00 10,7 5,6 43 23 57 31 WNW 1013,9 20 10 0,0
16.11.2019 09:00:00 11,4 4,6 44 24 51 28 WNW 1013,6 20 0 0,0
16.11.2019 08:00:00 11,1 5,1 37 20 54 29 WNW 1013,2 20 0 0,0
16.11.2019 07:00:00 11,1 5,0 18 10 42 23 WNW 1013,2 20 0 -

tt = temperatuur
td = dauwpunt
ff = windsnelheid
fx = windstoten
dd = windrichting
ppp = luchtdruk
vv = zicht
sd = Zonneschijnduur
rr = neerslag

Weerstations in de omgeving